Gallup, NM

7:24 PM MDT on April 24, 2018 (GMT -0600)
Gallup Municipal

Weather History for KGUP - May, 2013

Change the Weather History Date:

Sunday, May 26, 2013

  Actual Average Record
Temperature  
Mean Temperature 60 °F -  
Max Temperature 81 °F 78 °F 87 °F (2001)
Min Temperature 39 °F 36 °F 26 °F (1980)
Degree Days  
Heating Degree Days 6    
Growing Degree Days 10 (Base 50)    
Moisture  
Dew Point 8 °F    
Average Humidity 14    
Maximum Humidity 27    
Minimum Humidity 5    
Precipitation  
Precipitation 0.00 in - - ()
Sea Level Pressure  
Sea Level Pressure 29.76 in    
Wind  
Wind Speed 7 mph (SW)    
Max Wind Speed 25 mph    
Max Gust Speed 36 mph    
Visibility 10 miles    
Events      
Averages and records for this station are not official NWS values.
T = Trace of Precipitation, MM = Missing Value Source: NWS Daily Summary

Daily Weather History Graph

Daily Weather History Graph

Search for Another Location

Airport or City:

Astronomy

May. 26, 2013 Rise Set
Actual Time 6:03 AM MDT 8:21 PM MDT
Civil Twilight 5:34 AM MDT 8:50 PM MDT
Nautical Twilight 4:58 AM MDT 9:26 PM MDT
Astronomical Twilight 4:19 AM MDT 10:05 PM MDT
Moon 10:13 PM MDT (5/26) 7:35 AM MDT (5/26)
Length of Visible Light 15h 16m
Length of Day
14h 18m
Waning Gibbous, 96% of the Moon is Illuminated
May 26
Waning Gibbous
May 31
Last Quarter
Jun 8
New
Jun 16
First Quarter
Jun 23
Full

Hourly Weather History & Observations

Time (MDT) Temp. Windchill Dew Point Humidity Pressure Visibility Wind Dir Wind Speed Gust Speed Precip Events Conditions
12:53 AM 48.9 °F - 5.0 °F 17% 29.76 in 10.0 mi SE 5.8 mph - N/A   Clear
1:53 AM 46.0 °F - 5.0 °F 19% 29.77 in 10.0 mi Calm Calm - N/A   Clear
2:53 AM 45.0 °F 42.6 °F 7.0 °F 21% 29.77 in 10.0 mi East 4.6 mph - N/A   Clear
3:53 AM 39.0 °F 36.8 °F 6.1 °F 26% 29.80 in 10.0 mi ENE 3.5 mph - N/A   Clear
4:53 AM 39.0 °F - 7.0 °F 27% 29.80 in 10.0 mi Calm Calm - N/A   Clear
5:53 AM 39.0 °F 36.8 °F 7.0 °F 27% 29.83 in 10.0 mi East 3.5 mph - N/A   Clear
6:53 AM 41.0 °F - 9.0 °F 27% 29.85 in 10.0 mi Calm Calm - N/A   Clear
7:53 AM 48.9 °F - 12.0 °F 23% 29.82 in 10.0 mi Calm Calm - N/A   Clear
8:53 AM 59.0 °F - 16.0 °F 19% 29.78 in 10.0 mi NE 4.6 mph - N/A   Clear
9:53 AM 64.9 °F - 14.0 °F 14% 29.77 in 10.0 mi West 6.9 mph - N/A   Clear
10:53 AM 68.0 °F - 16.0 °F 14% 29.78 in 10.0 mi Variable 3.5 mph - N/A   Clear
11:53 AM 73.0 °F - 16.0 °F 11% 29.74 in 10.0 mi Variable 5.8 mph - N/A   Clear
12:53 PM 75.0 °F - 10.9 °F 9% 29.78 in 10.0 mi SW 9.2 mph 23.0 mph N/A   Clear
1:53 PM 79.0 °F - 10.9 °F 8% 29.74 in 10.0 mi WSW 18.4 mph 29.9 mph N/A   Clear
2:53 PM 79.0 °F - 10.9 °F 8% 29.75 in 10.0 mi WSW 16.1 mph 31.1 mph N/A   Clear
3:53 PM 80.1 °F - 6.1 °F 6% 29.75 in 10.0 mi WSW 25.3 mph 34.5 mph N/A   Clear
4:53 PM 79.0 °F - 8.1 °F 7% 29.75 in 10.0 mi WSW 18.4 mph 35.7 mph N/A   Clear
5:53 PM 78.1 °F - 3.0 °F 5% 29.75 in 10.0 mi WSW 23.0 mph 32.2 mph N/A   Clear
6:53 PM 75.9 °F - 3.0 °F 6% 29.75 in 10.0 mi SW 21.9 mph 34.5 mph N/A   Clear
7:53 PM 72.0 °F - 1.9 °F 6% 29.72 in 10.0 mi SW 18.4 mph 27.6 mph N/A   Clear
8:53 PM 66.0 °F - 3.9 °F 9% 29.71 in 10.0 mi SW 10.4 mph - N/A   Clear
9:53 PM 64.0 °F - 1.9 °F 8% 29.70 in 10.0 mi SW 10.4 mph - N/A   Clear
10:53 PM 61.0 °F - 1.9 °F 9% 29.73 in 10.0 mi SSW 10.4 mph - N/A   Clear
11:53 PM 57.0 °F - 3.9 °F 12% 29.73 in 10.0 mi SSW 8.1 mph - N/A   Clear